Location: Aichet
(48.5333°N, 15.6167°E)
Time: 21:49:11
(UTC+00:00)

Daily predictions for brighter satellites

Satellite Brightness Start Highest point End
(mag) Time Altitude Azimuth Time Altitude Azimuth Time Altitude Azimuth
Cosmos 2360 4.3 16:16:20 10° SSW 16:22:03 85° ESE 16:27:48 10° NNE
Cosmos 1697 Rocket 2.8 16:16:24 10° SSW 16:22:05 86° WNW 16:27:47 10° NNE
H-2A R/B 3.8 16:22:40 10° ESE 16:25:51 21° ENE 16:28:59 10° NNE
ATLAS 3B R/B 2.9 16:24:22 10° SW 16:30:56 73° NW 16:37:52 10° NE
CZ-4 R/B 2.8 16:29:45 10° ESE 16:32:34 19° ENE 16:35:27 10° NNE
Tiangong 3.4 16:33:04 10° SSW 16:34:56 15° SSE 16:36:48 10° SE
Cosmos 2227 Rocket 4.3 16:30:20 10° NW 16:35:18 32° WSW 16:40:15 10° SSW
Cosmos 1844 Rocket 4.0 16:31:37 10° N 16:35:42 20° NE 16:39:44 10° E
Cosmos 1908 3.3 16:32:38 10° S 16:36:25 53° E 16:40:12 10° NNE
Okean O Rocket 1.9 16:32:27 10° SE 16:36:34 44° ENE 16:40:44 10° N
Cosmos 2098 4.2 16:35:23 10° S 16:38:21 79° E 16:41:47 10° N
SL-19 R/B 4.4 16:33:36 10° NNE 16:39:15 55° ESE 16:44:41 10° S
Cosmos 2123 Rocket 4.3 16:38:12 10° N 16:44:17 45° ENE 16:50:17 10° SE
USA 267 3.9 16:37:58 10° SE 16:44:24 58° SW 16:50:53 10° WNW
SL-08 RB Rocket 4.5 16:41:15 10° SE 16:45:14 31° ENE 16:49:17 10° N
Cosmos 2278 3.8 16:39:45 10° S 16:45:19 61° ESE 16:50:57 10° NNE
CENTAUR R/B 4.3 16:45:20 10° WNW 16:51:02 26° N 16:57:33 10° NE
Meteor 1-4 Rocket 4.5 16:50:42 10° ESE 16:51:14 12° ESE 16:51:14 12° ESE
Okean 1-7 Rocket 3.9 16:48:58 10° N 16:53:11 42° ENE 16:57:23 10° SSE
Okean 1 Rocket 3.9 16:48:59 10° SSW 16:53:13 53° WNW 16:57:31 10° N
Okean-O 4.0 16:51:28 11° ESE 16:54:32 20° ENE 16:57:46 10° NNE
NOSS 3-1 (C) 4.1 16:51:33 10° S 16:55:57 28° ESE 17:00:54 10° ENE
Feng Yun 1-1 Rocket 4.5 16:51:34 10° SE 16:56:54 49° ENE 17:02:25 10° N
Landsat 5 3.8 16:53:19 10° NNE 16:57:37 51° E 17:01:58 10° S
SL-16 R/B 2.9 16:54:51 10° SSE 16:59:45 31° ESE 17:04:39 10° NE
COSMO-SKYMED 1 2.6 16:57:05 10° NNE 17:01:23 60° E 17:05:41 10° S
Meteor 1-16 Rocket 4.3 16:57:06 10° S 17:02:59 83° E 17:08:48 10° NNE
deb Chang Zheng 4 4.0 17:01:50 10° S 17:06:00 63° WSW 17:10:12 10° NNW
Meteor 2-10 Rocket 4.4 17:02:59 10° SE 17:07:38 28° E 17:12:09 10° NNE
Cosmos 2344 4.3 16:59:13 10° NW 17:07:44 58° NE 17:18:58 11° ESE
ATLAS 5 CENTAUR R/B 1.3 17:05:28 10° SW 17:09:21 87° NW 17:13:47 10° NE
Cosmos 1892 Rocket 3.9 17:05:59 10° NNW 17:10:27 69° W 17:14:51 10° S
Cosmos 839 Rocket 4.4 17:04:17 10° NW 17:12:17 61° NE 17:18:20 12° SE
Cosmos 1300 2.9 17:09:45 10° SSE 17:13:24 46° E 17:17:03 10° NNE
Cosmos 2322 Rocket 2.9 17:09:22 10° SSE 17:14:10 30° ESE 17:18:58 10° NE
Cosmos 1703 4.0 17:11:56 10° NNW 17:15:48 56° W 17:19:36 10° S
Cosmos 1408 4.1 17:15:49 10° NNE 17:17:48 19° NE 17:17:48 19° NE
CZ-4C R/B 2.7 17:17:11 10° NNE 17:20:36 70° ESE 17:23:52 10° S
Lacrosse 4 Rocket 1.9 17:16:35 10° NNW 17:20:42 42° NE 17:22:49 25° ESE
Meteor 1-11 4.1 17:16:07 10° N 17:21:43 70° ENE 17:27:20 10° SSE
Cosmos 1825 4.5 17:20:18 10° NNE 17:20:32 11° NNE 17:20:32 11° NNE
Cosmos 332 Rocket 4.4 17:20:58 10° SSE 17:25:23 35° ESE 17:28:59 14° NE
Cosmos 2360 Rocket 3.2 17:21:47 10° SSE 17:26:07 23° ESE 17:26:16 23° E
Cosmos 1758 Rocket 4.2 17:24:35 10° N 17:28:28 31° ENE 17:29:10 29° E
Cosmos 405 Rocket 3.9 17:25:38 10° NNW 17:29:26 46° W 17:33:17 10° S
DMSP B5D2-2 4.4 17:26:38 10° NNE 17:31:39 43° E 17:36:35 10° S
Cosmos 614 Rocket 4.2 17:27:31 10° NNW 17:32:25 46° ENE 17:34:56 26° ESE
X-37B 1.4 17:29:57 10° WSW 17:32:59 41° S 17:33:45 33° SSE
CZ-4B R/B 4.2 17:27:55 10° S 17:33:25 51° W 17:38:56 10° NNW
Cosmos 1605 Rocket 4.0 17:28:12 10° SSE 17:34:17 57° E 17:40:31 10° NNE
Iridium 4 Rocket 3.3 17:30:09 10° N 17:34:42 82° W 17:39:37 10° S
Cosmos 1626 Rocket 3.4 17:31:26 10° N 17:35:47 77° E 17:40:05 10° SSE
H-2A R/B 3.3 17:30:38 10° S 17:35:47 46° W 17:41:03 10° NNW
MOS 1-B Rocket 4.1 17:31:24 10° NNE 17:38:18 88° WNW 17:44:15 10° SSW
Cosmos 1535 Rocket 4.4 17:34:12 10° S 17:40:27 84° E 17:46:51 10° N
Cosmos 1447 Rocket 4.5 17:36:00 10° N 17:42:03 56° ENE 17:48:03 10° SSE
In-Cosmos 22 Rocket 4.1 17:37:17 10° N 17:42:32 56° ENE 17:46:38 16° SSE
ARGOS 3.6 17:37:56 10° S 17:43:16 62° WSW 17:48:40 10° NNW
Cosmos 2263 Rocket 3.4 17:41:08 10° NW 17:46:22 42° WSW 17:51:33 10° S
Cosmos 1980 Rocket 3.5 17:44:33 10° WSW 17:49:52 40° NW 17:55:14 10° NNE
MetOp-A 4.1 17:47:07 18° SE 17:51:02 62° ENE 17:56:21 10° N
USA 215 3.9 17:47:06 18° NE 17:51:45 49° NNW 17:58:00 10° W
Cosmos 371 Rocket 3.3 17:48:02 10° SSW 17:52:55 82° WNW 17:57:50 10° NNE
NOSS 2-3 (E) 3.4 17:49:15 10° SSW 17:53:13 62° SE 17:54:10 48° ENE
CSL-04 Debris 4.1 17:49:52 23° SE 17:53:14 61° ENE 17:58:36 10° N
USA 229 DEB 3.8 17:51:42 10° S 17:57:41 46° ESE 17:59:47 35° ENE
USA 229 3.8 17:51:49 10° S 17:57:48 45° ESE 17:59:49 35° ENE
YAOGAN 1 2.9 17:53:48 10° S 17:58:05 64° WSW 18:02:25 10° NNW
H-2A R/B 3.5 17:56:51 10° S 18:01:02 48° W 18:05:06 10° NNW
CZ-2C R/B 3.5 17:56:25 10° N 18:01:53 54° WNW 18:07:15 10° SW
H-2A R/B 1.8 17:58:12 10° NNE 18:02:20 75° ESE 18:06:30 10° S
Cosmos 1892 2.8 18:00:10 10° N 18:03:25 61° NNE 18:03:25 61° NNE
SL-8 R/B 3.6 18:00:12 10° WSW 18:05:00 79° SSE 18:05:47 62° E
CZ-4 R/B 2.3 18:03:20 10° S 18:07:13 49° W 18:11:12 10° NNW
CSL-04 Rocket 3.6 18:05:17 30° SSE 18:08:06 73° ENE 18:13:40 10° NNW
Cosmos 2237 4.1 18:03:50 10° SSW 18:09:28 63° ESE 18:11:49 35° NE
Tiangong 3.4 18:08:35 10° SW 18:09:58 18° SSW 18:09:58 18° SSW
Okean O Rocket 4.1 18:09:46 10° SW 18:13:08 22° W 18:16:31 10° NW
Cosmos 2251 Rocket 3.5 18:13:02 10° NNW 18:18:19 83° WSW 18:20:00 45° SSE
NOSS 3-1 (A) 3.1 18:14:45 10° SSW 18:19:57 61° SE 18:20:11 61° ESE
Cosmos 1844 Rocket 2.5 18:14:50 10° NNW 18:20:27 85° ENE 18:21:39 57° SE
ATLAS 3B R/B 4.2 18:17:03 10° W 18:22:48 29° NNW 18:28:06 13° NE
Meteor 1-4 Rocket 4.2 18:23:37 10° SSW 18:25:30 27° SW 18:25:30 27° SW
Cosmos 1932 4.3 18:21:24 10° NW 18:27:40 85° NE 18:28:54 60° SE
Okean-O 3.3 18:29:03 34° SSW 18:30:39 54° W 18:35:01 10° NNW
Cosmos 407 Rocket 3.7 18:25:43 10° NNW 18:30:24 59° NNE 18:30:24 59° NNE
Cosmos 44 4.2 18:25:57 10° SSW 18:29:37 42° S 18:29:37 42° S
Cosmos 2278 Rocket 3.6 18:31:50 10° NNW 18:35:14 24° NNE 18:35:14 24° NNE
Cosmos 2346 Rocket 4.4 18:30:32 10° N 18:36:27 63° ENE 18:36:27 63° ENE
Cosmos 1140 Rocket 3.8 18:35:07 10° NNW 18:39:16 55° N 18:39:16 55° N
NOSS 2-3 (D) 4.1 18:36:34 10° SW 18:40:04 55° W 18:40:04 55° W
Resurs 01 Rocket 4.2 18:46:27 12° N 18:46:27 12° N 18:46:44 10° N
SL-16 R/B 3.0 18:38:08 10° SW 18:43:37 50° NW 18:48:40 12° NNE
CENTAUR R/B 4.1 18:37:31 10° NW 18:44:10 32° NNE 18:45:53 30° NE
NOSS 3-1 (C) 3.6 18:40:52 10° WSW 18:46:12 61° NW 18:48:20 39° NNE
Meteor 2-11 Rocket 4.4 18:46:58 10° SSW 18:53:08 79° WNW 18:59:20 10° N
Cosmos 2100 Rocket 3.9 18:54:33 79° NNE 18:54:33 79° NNE 19:00:32 10° N
ATLAS 5 CENTAUR R/B 3.7 18:51:27 10° WNW 18:54:40 21° NNW 18:55:23 20° N
Cosmos 2322 Rocket 2.9 18:52:32 10° SW 18:57:58 50° NW 19:00:51 27° N
Lacrosse 4 Rocket 3.4 18:55:34 10° NW 18:59:08 26° WSW 18:59:08 26° WSW
Cosmos 1844 4.1 18:57:14 10° NW 19:02:55 57° WSW 19:03:00 57° WSW
Cosmos 2360 Rocket 2.9 19:04:02 10° SW 19:08:09 47° WSW 19:08:09 47° WSW
Cosmos 2173 Rocket 4.4 19:12:52 54° N 19:12:52 54° N 19:17:41 10° N
ATLAS 5 CENTAUR R/B 4.5 19:21:17 10° WNW 19:33:49 32° NNW 19:34:54 30° N
USA 215 4.0 19:34:27 43° N 19:34:27 43° N 19:40:11 10° WNW
USA 229 DEB 4.5 19:42:18 10° WSW 19:47:18 45° WNW 19:47:18 45° WNW
USA 229 4.5 19:42:24 10° WSW 19:47:19 44° WNW 19:47:19 44° WNW
ATLAS 3B R/B 4.5 20:10:26 10° NW 20:15:21 23° N 20:15:21 23° N
CENTAUR R/B 4.1 20:28:22 10° NW 20:33:03 40° NNW 20:33:03 40° NNW
